ECMWFFLT1_sfc_dewp_027.txt.gz
Dewpoint
26 26 26 25 26 26 27 27 28 29 30 30 30 30 29 29 29 30 31 31 31 32 32 32 32 32 32 32 31 31 31 29 28 26 23 23 24 25 24 22 20 18 14 2 4 5 5 7 9 11 12 12 13 15 21 21 18 19 20 19 18 19 26
27 27 27 27 27 27 27 26 26 27 28 29 28 29 30 28 28 30 29 30 30 31 31 32 31 31 31 32 31 31 31 29 27 27 26 23 21 21 23 21 22 21 18 6 1 4 6 6 8 8 11 10 12 13 19 17 16 17 18 17 16 15 17
27 27 28 28 28 28 27 27 27 27 27 27 28 28 29 29 29 28 29 29 29 30 31 31 31 31 31 31 31 31 31 31 29 26 25 25 23 22 19 19 20 22 20 12 3 3 5 5 6 6 9 10 11 12 16 15 15 15 17 17 15 15 15
27 27 27 27 27 25 27 26 25 26 27 27 27 28 28 28 28 28 28 28 28 29 30 30 30 30 31 31 30 30 30 30 30 28 26 25 25 23 21 19 18 19 22 16 6 5 4 5 6 6 9 10 12 12 15 14 14 14 14 15 16 14 14
24 26 26 25 25 26 26 26 26 26 26 27 28 29 30 29 29 28 28 28 28 28 28 29 29 30 30 29 29 29 29 29 29 28 27 26 25 24 22 21 19 18 20 16 10 6 6 5 5 6 9 11 11 11 13 14 12 12 12 13 14 14 13
18 20 23 25 25 25 25 26 26 26 26 26 27 28 29 30 30 29 29 29 28 28 28 28 28 29 29 29 28 28 28 28 28 27 26 26 25 24 23 21 21 20 21 18 13 8 6 6 5 5 8 9 9 10 11 11 11 11 11 11 11 12 12
21 20 20 19 19 19 21 23 24 25 26 26 26 25 26 27 29 29 29 29 28 28 28 28 29 29 29 29 28 28 28 27 26 25 25 25 25 24 23 22 22 22 22 21 17 10 8 6 6 5 6 8 9 9 9 9 9 9 10 10 10 10 11
19 20 21 21 21 21 21 21 22 23 25 26 27 27 27 26 27 28 29 29 28 28 28 28 28 28 29 29 29 28 28 27 26 25 24 24 24 23 23 22 22 21 21 21 19 14 9 8 6 5 6 8 8 8 8 8 8 8 8 9 9 9 9
17 17 18 20 21 22 23 23 23 25 26 27 28 29 29 28 27 27 27 28 29 29 29 28 28 28 28 29 29 29 28 28 27 25 23 24 24 23 22 21 21 20 20 20 19 15 11 9 7 6 6 8 8 7 7 7 8 7 8 8 8 8 8
15 17 18 20 22 23 24 25 25 27 28 29 28 29 28 27 27 26 25 25 26 28 29 29 28 28 28 28 28 28 29 28 28 27 25 24 23 22 22 21 20 19 19 19 19 17 13 11 9 7 6 7 8 7 8 8 8 8 8 9 10 8 8
16 17 19 21 23 24 25 26 27 28 29 30 29 29 29 28 27 26 26 25 25 26 26 27 28 28 28 28 28 28 29 29 29 28 27 26 25 24 23 21 20 19 19 18 19 19 16 13 11 10 7 7 8 8 8 8 8 8 9 9 9 7 9
17 18 19 21 22 23 25 27 29 30 31 30 30 31 29 29 28 28 28 28 28 28 28 28 28 28 28 28 28 28 28 28 28 29 28 27 27 26 25 24 21 20 19 19 18 19 18 16 14 12 12 11 11 9 9 9 9 9 10 10 9 8 7
16 17 19 22 23 25 27 28 29 30 31 31 31 32 31 29 29 29 29 29 29 29 29 28 28 28 28 28 29 28 28 27 27 28 28 28 27 26 26 25 25 24 22 20 19 19 19 19 17 15 13 13 13 12 12 12 11 12 11 10 9 8 9
16 18 20 22 24 25 27 28 29 31 31 32 32 32 31 30 30 29 29 29 29 29 29 29 28 27 27 28 28 28 27 26 26 26 27 27 27 26 26 26 26 25 24 22 20 20 19 21 21 17 16 16 18 14 13 13 12 14 12 12 11 10 10
16 18 21 23 25 27 28 28 30 31 31 30 31 31 30 30 29 29 28 28 29 29 30 29 29 28 28 28 27 27 27 27 26 26 26 26 26 25 25 25 25 24 24 23 21 21 21 21 22 20 19 18 18 17 16 16 15 15 14 15 13 12 14
17 19 22 26 28 28 27 27 30 31 30 30 30 30 28 27 27 27 28 28 28 29 30 30 29 29 29 28 28 28 29 28 27 26 25 25 25 25 25 24 25 26 26 24 22 22 22 22 22 23 20 19 18 19 19 17 14 14 12 11 10 9 9
16 19 22 24 27 27 25 25 27 30 29 29 29 29 28 29 28 28 27 28 29 29 29 29 29 30 29 29 29 29 29 30 28 26 25 24 24 24 24 23 24 26 27 26 25 25 24 24 24 24 23 22 23 19 17 15 13 12 12 10 9 8 8
17 20 22 25 26 26 25 25 26 28 29 30 30 29 28 28 28 28 28 28 29 29 29 30 30 29 29 29 28 29 30 30 29 26 25 24 24 23 22 22 23 24 25 26 26 25 25 24 24 24 24 24 24 23 20 15 12 12 12 11 10 8 7
17 19 22 25 27 28 28 28 28 29 30 30 31 30 30 29 29 28 28 28 28 29 29 29 30 30 30 29 29 30 30 30 29 27 25 24 23 22 21 22 22 23 23 24 24 23 23 23 24 24 24 24 23 22 20 17 15 13 12 9 9 7 3
18 20 23 26 27 28 28 28 29 29 31 31 30 30 29 29 29 28 28 28 28 28 28 28 28 29 31 30 30 30 30 30 30 27 25 24 23 21 21 22 22 23 23 23 22 22 22 21 22 22 22 22 20 17 15 16 14 14 12 10 8 7 5
22 24 25 27 28 28 28 28 29 28 28 27 28 28 27 26 26 26 27 27 26 26 26 25 26 27 29 30 30 30 30 30 30 29 25 24 22 22 22 23 21 23 24 21 17 16 16 17 16 16 16 14 13 12 11 11 12 14 13 10 7 6 5
25 24 25 26 26 25 25 26 27 24 27 27 27 27 26 25 25 26 26 26 24 24 23 23 24 24 26 28 30 29 29 29 29 29 24 23 25 24 24 22 21 22 19 15 14 14 13 13 13 12 11 10 8 7 6 7 6 5 5 5 8 7 5
23 22 21 20 21 21 22 22 22 26 24 26 26 25 25 26 26 27 27 24 22 22 22 22 23 23 26 28 28 28 28 28 28 27 23 25 25 24 24 23 21 17 15 14 13 13 12 11 11 9 8 7 3 2 2 1 0 -0 -0 -1 -1 0 0
22 21 20 20 20 21 22 23 22 24 25 23 25 24 25 25 26 26 25 23 22 21 20 20 19 22 26 26 27 27 27 26 27 24 25 25 25 24 23 19 16 15 14 13 12 11 11 10 10 9 7 4 2 0 0 -1 -1 -4 -5 -5 -6 -4 -4
21 21 20 20 19 20 23 24 23 19 22 24 24 24 25 25 26 27 26 22 21 21 20 22 23 24 25 25 25 25 25 25 26 25 25 24 24 23 18 16 15 14 13 12 11 10 10 9 8 8 5 2 -1 -2 -2 -4 -4 -5 -6 -7 -6 -5 -7
19 21 20 20 20 21 22 21 22 20 16 23 24 24 25 27 28 27 24 23 22 23 23 24 24 24 24 24 24 24 24 24 23 24 24 24 22 17 16 15 14 13 13 11 11 9 8 5 2 -0 -1 -2 -2 -3 -5 -5 -7 -7 -7 -8 -8 -8 -6
19 20 19 19 20 19 19 19 20 20 17 16 20 23 27 27 25 24 24 23 22 23 22 23 23 23 24 24 25 24 24 24 24 23 22 18 16 16 15 15 14 13 12 11 9 6 3 0 -1 -2 -3 -4 -4 -5 -5 -5 -7 -6 -7 -7 -10 -9 -9
20 20 19 19 19 19 19 18 19 19 19 19 22 25 24 23 22 21 20 21 20 21 22 22 23 23 23 23 21 19 18 17 16 16 16 15 15 14 15 16 17 15 10 8 5 1 -1 -3 -2 -3 -4 -5 -5 -5 -5 -5 -6 -7 -6 -7 -10 -12 -10
21 21 21 21 20 19 18 18 18 20 23 24 25 24 22 21 20 21 20 22 23 20 20 19 19 18 17 16 15 14 14 14 13 13 13 13 13 13 13 11 10 8 5 3 1 -0 -1 -2 -3 -4 -5 -5 -6 -6 -5 -6 -6 -7 -6 -11 -13 -11 -11
22 23 24 23 22 21 19 19 19 22 25 24 24 25 24 23 23 23 23 23 22 20 18 17 16 16 15 14 12 11 10 10 10 10 10 11 13 9 9 8 6 5 4 3 2 -0 -2 -3 -4 -5 -5 -5 -5 -6 -6 -7 -1 -10 -9 -10 -11 -12 -13
25 25 26 23 23 23 24 24 24 25 24 24 25 26 25 24 24 24 24 23 19 16 15 15 14 13 13 12 11 10 9 9 9 9 8 7 7 7 7 5 4 3 2 1 -0 -1 -2 -3 -4 -5 -5 -5 -6 -7 -8 -5 -7 -9 -11 -11 -12 -15 -14
24 25 25 26 25 23 22 24 23 23 24 24 26 26 25 25 24 24 23 22 20 15 14 13 12 12 11 10 10 9 9 9 8 7 7 6 4 3 3 3 2 2 1 -0 -1 -2 -3 -4 -5 -5 -5 -6 -7 -7 -6 -5 -9 -11 -12 -14 -14 -14 -11
23 24 25 26 27 25 24 23 23 24 24 25 27 26 25 25 25 24 23 20 15 13 12 12 11 10 10 10 9 9 8 7 6 6 5 4 3 1 1 1 2 3 0 -2 -2 -3 -5 -5 -5 -5 -6 -7 -7 -6 -7 -9 -11 -14 -14 -14 -14 -10 -9
21 22 24 25 26 25 25 25 24 24 24 26 26 26 26 25 23 23 20 17 13 13 11 11 10 10 10 9 9 8 7 6 6 5 4 2 1 -0 -1 -0 -0 -2 -3 -2 -2 -5 -5 -5 -5 -6 -7 -7 -9 -11 -9 -10 -12 -14 -13 -14 -14 -14 -15
16 20 23 23 25 26 25 25 25 25 25 27 26 26 25 23 18 15 15 15 14 13 11 10 10 9 9 9 8 7 6 6 5 3 1 -1 -3 -3 -3 -4 -4 -4 -4 -4 -5 -6 -6 -6 -7 -7 -8 -7 -8 -9 -10 -11 -12 -13 -13 -13 -14 -14 -14
16 18 21 23 24 25 27 27 26 26 26 27 26 25 22 16 15 14 14 14 13 12 12 11 10 10 9 9 8 7 6 5 4 2 0 -2 -4 -5 -5 -5 -5 -5 -6 -7 -6 -7 -6 -6 -8 -7 -8 -10 -8 -9 -8 -10 -10 -12 -13 -14 -15 -14 -15

ECMWFFLT1_sfc_dewp_033.txt.gz
Dewpoint
5 5 5 7 15 19 21 23 26 27 27 27 28 28 27 27 27 27 27 27 27 29 30 31 31 32 32 32 31 32 32 32 32 32 33 32 31 29 29 28 27 27 27 14 12 11 11 13 14 16 16 16 18 19 23 24 19 20 22 21 19 20 30
4 5 5 7 14 19 20 23 25 26 27 27 27 27 27 27 26 27 27 28 28 28 30 31 31 31 31 32 31 32 32 32 32 32 32 32 32 30 29 29 28 27 27 26 11 10 11 12 14 13 16 16 16 17 20 21 20 19 21 20 19 18 20
5 5 6 11 17 20 19 17 18 22 26 27 27 27 27 27 27 27 27 27 28 28 29 30 31 31 31 31 31 31 32 32 32 32 32 32 32 31 31 30 29 28 27 27 17 11 10 11 13 12 15 16 16 17 18 20 20 19 20 22 20 18 17
6 6 12 15 16 13 13 13 14 16 20 24 27 27 27 27 27 27 26 25 26 27 27 28 29 30 31 31 31 31 31 32 32 32 32 31 32 32 31 31 30 29 29 28 26 12 10 10 12 12 15 16 17 16 17 18 19 19 18 19 21 19 17
9 10 11 10 9 9 10 11 12 14 15 18 22 27 28 28 27 27 26 25 25 27 26 26 27 28 29 30 30 30 31 31 31 32 31 31 31 31 31 31 30 30 29 28 27 18 13 11 12 13 16 18 18 18 17 18 18 18 17 18 20 20 18
7 8 7 7 7 8 10 11 11 13 14 16 19 22 26 26 25 24 24 24 25 25 25 26 26 26 27 29 29 29 29 30 30 31 31 31 31 31 31 31 31 30 29 29 28 21 13 12 13 14 17 18 18 18 19 23 23 20 19 18 19 19 18
4 6 6 7 7 8 9 10 11 13 15 16 18 21 23 24 24 23 23 23 24 25 25 25 26 26 27 28 30 30 29 28 29 31 31 31 30 30 30 30 30 30 30 29 29 21 16 13 13 15 16 18 19 19 20 21 21 21 21 20 18 17 16
5 5 6 6 7 8 10 11 12 14 15 17 19 21 22 23 23 22 22 23 24 24 25 25 26 26 27 27 28 29 29 29 28 30 30 31 30 30 30 29 28 28 28 29 28 23 18 14 13 14 16 18 19 20 20 20 19 19 19 20 21 19 16
6 6 6 6 7 8 10 12 13 14 16 18 19 21 22 22 22 22 22 22 23 24 25 25 26 26 26 27 29 30 30 30 30 29 29 30 31 30 30 29 28 27 27 27 27 24 20 15 14 14 16 18 18 19 18 19 20 20 20 20 20 19 18
6 6 7 7 8 9 10 12 13 16 20 21 20 20 22 22 22 22 22 22 23 24 25 25 25 26 28 28 29 29 30 30 30 30 29 29 30 30 29 29 28 27 26 26 25 23 20 18 16 14 15 17 18 19 19 19 19 18 19 18 19 19 20
7 8 8 9 10 10 11 12 14 19 21 23 24 23 23 23 23 23 23 23 23 23 24 24 25 25 27 28 29 28 29 30 30 30 31 30 31 30 30 28 28 27 27 26 24 23 21 19 17 15 14 15 17 18 18 18 18 18 18 17 16 16 18
8 9 10 11 12 12 13 14 18 21 23 24 25 25 24 24 24 25 25 24 24 24 25 25 25 26 27 27 27 26 27 29 30 30 30 30 30 31 31 30 28 27 27 26 25 23 21 21 20 18 16 16 17 16 17 17 18 18 18 17 16 17 16
9 9 10 11 12 12 14 15 19 22 23 25 26 26 25 24 25 26 26 26 26 25 25 25 25 26 27 27 29 28 26 26 28 30 30 30 30 30 31 31 31 30 28 27 26 25 22 21 20 19 18 18 17 17 18 18 18 19 18 18 17 16 18
9 10 10 11 12 13 14 16 19 22 24 25 26 27 26 25 26 27 28 28 27 27 26 26 25 26 26 27 27 28 27 25 27 29 29 29 29 29 29 30 30 30 30 29 27 26 24 23 22 20 20 20 21 19 18 18 18 19 18 18 17 19 19
9 10 11 12 13 14 15 16 21 23 25 26 28 28 28 27 28 28 28 29 29 28 28 27 27 26 26 26 27 28 28 26 26 27 28 28 27 27 27 28 28 28 28 28 27 26 26 25 24 23 22 21 21 21 20 20 19 20 19 20 18 18 19
10 11 12 13 14 14 15 17 23 25 26 28 29 30 29 29 29 29 29 29 29 29 29 28 27 27 27 27 26 27 29 28 27 26 25 25 25 26 27 26 28 28 28 27 26 25 24 25 25 25 22 21 21 21 22 22 20 19 17 16 15 14 16
10 11 12 13 14 15 16 18 22 26 27 28 30 30 30 29 29 29 29 29 30 29 29 29 29 28 28 28 28 28 29 30 29 27 25 24 23 22 22 23 23 28 29 29 28 28 27 27 28 27 26 25 24 21 21 18 17 16 16 15 13 13 13
11 12 13 14 15 17 18 21 24 27 28 30 30 30 28 28 27 26 26 26 26 27 28 29 30 30 29 28 28 29 29 30 30 27 26 25 22 19 19 20 21 22 28 29 29 28 28 27 27 28 27 26 25 23 22 17 15 16 16 14 13 12 12
13 14 17 19 21 22 23 22 23 25 27 30 29 29 29 29 27 26 24 24 24 25 26 26 29 30 30 29 29 30 30 31 30 28 27 25 23 21 20 22 22 22 23 24 26 27 28 27 27 28 27 25 24 23 22 19 18 17 15 13 14 12 11
14 15 17 19 21 23 22 21 21 23 27 28 28 26 26 27 27 26 26 26 27 27 26 26 26 28 30 31 30 31 31 30 31 29 28 26 25 23 22 24 24 24 23 23 24 25 26 25 25 25 25 25 24 23 20 19 19 17 15 14 14 12 11
12 14 16 17 19 20 19 19 21 23 25 25 27 26 24 22 21 20 18 20 23 26 27 27 27 27 29 30 31 30 30 29 29 30 29 28 26 26 26 27 25 25 26 24 23 24 25 24 24 24 23 23 23 21 19 19 19 18 17 16 14 13 12
12 13 15 16 17 15 16 18 22 22 23 23 24 25 25 22 20 21 20 21 21 23 24 26 28 28 29 29 30 31 30 29 29 29 29 28 29 29 29 27 26 25 26 25 25 24 24 23 23 23 22 22 21 19 18 18 18 18 17 16 17 14 12
11 12 14 15 17 17 17 17 19 23 22 22 23 24 25 25 24 25 25 25 24 24 24 25 25 26 28 30 30 31 29 30 30 29 29 30 30 29 29 28 26 25 25 24 24 23 23 22 22 20 19 18 16 14 14 13 12 12 11 9 9 10 10
13 14 15 16 17 18 18 17 18 21 22 22 23 24 25 25 25 25 25 25 25 25 25 25 25 25 26 27 28 29 30 29 30 29 29 29 30 30 29 28 25 24 24 23 22 22 21 20 20 18 16 14 11 7 6 6 7 7 7 7 6 7 8
13 14 15 16 17 19 20 21 21 18 19 22 23 24 26 26 25 25 25 24 24 24 23 25 26 26 26 27 28 28 28 29 30 30 30 30 30 30 29 27 24 24 23 22 21 20 19 18 16 15 12 9 6 4 4 2 1 2 2 2 3 2 1
13 14 16 17 18 20 21 21 19 16 13 20 21 23 25 27 27 27 27 25 23 24 24 24 25 25 25 26 27 27 26 26 27 29 30 30 30 29 25 24 23 22 21 20 19 17 15 11 8 7 7 7 7 8 6 4 3 3 3 4 3 1 -3
14 15 17 19 21 21 22 20 16 18 20 21 21 23 24 24 25 25 24 21 22 24 22 24 24 25 26 26 26 26 26 26 26 24 23 22 22 22 22 21 21 21 20 17 14 10 6 7 6 6 6 7 7 6 5 5 4 3 2 2 1 -0 -4
15 18 20 21 21 22 22 21 19 19 19 21 22 23 21 20 20 18 17 19 19 21 22 22 23 22 20 20 19 19 19 18 18 18 18 18 18 18 19 20 20 17 14 11 9 6 5 4 6 6 7 6 5 4 2 3 3 1 -1 -1 -1 -3 -7
21 21 22 22 22 22 21 20 19 19 24 25 25 24 21 19 17 16 17 22 23 20 20 19 18 17 17 17 16 16 16 16 15 16 16 16 16 16 16 15 14 11 9 7 6 5 4 5 6 5 5 3 2 0 -0 0 -1 -1 -2 -5 -7 -3 -5
21 22 23 23 23 24 23 21 21 25 24 25 26 24 24 23 23 24 22 23 22 19 17 16 15 15 15 15 15 14 14 14 14 14 14 14 15 13 12 11 9 8 7 7 6 6 6 6 5 4 3 2 -0 -3 -2 1 2 -4 -3 -4 -5 -4 -6
23 24 24 24 23 25 26 25 24 25 25 26 26 25 25 24 24 23 23 22 17 15 14 14 13 13 13 13 13 13 13 13 12 12 11 11 11 10 10 9 8 7 7 7 7 6 6 5 4 3 2 -0 -2 -2 -2 -3 -3 -3 -4 -2 -2 -3 -4
23 24 24 24 25 26 24 25 26 26 26 26 25 25 24 24 23 23 22 21 19 13 12 12 12 12 12 12 12 11 12 11 11 11 10 9 9 8 8 7 7 7 7 7 6 5 5 4 3 2 0 -1 -2 -2 -3 -4 -4 -4 -4 -4 -3 -3 -4
22 23 24 24 25 27 27 26 26 26 25 25 25 24 24 23 23 22 21 19 13 11 10 11 11 11 11 11 10 10 10 10 10 9 8 8 7 6 6 6 6 8 7 6 6 5 4 4 2 1 -1 -2 -2 -3 -4 -4 -4 -5 -4 -4 -5 -6 -6
21 22 23 23 24 26 27 26 26 26 26 26 25 24 23 22 20 21 20 16 10 10 8 7 8 7 6 6 6 6 8 8 8 7 5 4 4 5 6 6 7 7 6 6 6 5 3 2 1 -0 -1 -2 -2 -2 -4 -4 -5 -5 -5 -5 -5 -6 -7
15 19 21 21 21 24 26 27 26 26 25 25 24 22 20 18 11 10 10 11 11 10 8 7 5 3 3 3 5 5 7 6 4 3 2 1 1 2 4 5 5 5 5 5 4 3 2 1 -0 -0 -1 -2 -3 -4 -5 -5 -6 -5 -5 -5 -7 -7 -9
14 16 18 21 21 22 24 25 24 24 24 23 22 21 19 11 8 7 7 8 8 7 7 6 4 2 4 7 7 6 4 3 1 -1 -0 -0 1 2 2 3 3 3 3 2 2 1 1 1 -0 -1 -2 -2 -2 -3 -4 -5 -5 -6 -6 -6 -7 -9 -8

ECMWFFLT1_sfc_dewp_039.txt.gz
Dewpoint
-9 -9 -8 -7 -5 -3 -1 -0 2 2 3 4 4 5 7 14 20 20 22 23 24 26 26 26 27 28 29 30 30 30 31 32 32 32 32 33 33 32 33 32 31 29 30 26 17 17 19 20 25 26 28 27 27 27 28 25 22 23 24 23 23 24 31
-7 -7 -6 -4 -3 -2 -0 2 3 4 5 6 7 8 15 18 19 17 18 22 24 25 26 26 27 28 29 30 30 30 30 30 30 31 31 32 32 32 32 33 32 31 30 30 22 15 15 18 21 23 27 27 27 27 29 26 24 24 24 24 23 23 25
-5 -4 -2 0 2 3 5 6 8 8 10 11 15 15 14 14 16 17 17 19 23 24 25 26 27 28 29 30 29 30 30 31 30 30 30 31 32 32 31 32 32 31 30 30 28 19 15 16 18 21 23 26 27 27 28 28 27 25 25 25 25 24 24
-3 -3 -3 -2 -1 3 1 2 7 9 10 11 11 12 13 15 16 17 17 19 21 24 25 25 26 27 29 29 29 29 29 30 31 31 31 32 32 32 32 32 32 32 31 30 30 23 17 16 17 18 21 24 25 26 27 28 28 28 26 25 25 23 22
-2 -2 -1 -1 -1 -0 -0 1 2 4 5 6 7 10 13 14 15 16 18 19 20 22 25 26 26 27 29 29 29 28 29 29 30 31 31 31 31 31 31 31 31 31 31 31 30 28 19 17 16 16 19 23 24 25 26 27 27 26 26 26 26 25 24
-1 -1 -1 -1 -0 0 1 1 2 3 4 5 5 6 11 13 15 16 17 18 20 22 25 26 28 28 28 28 28 29 29 30 30 31 31 30 30 30 30 30 30 31 31 31 30 30 20 18 17 17 18 20 22 23 24 25 26 27 26 25 24 24 23
0 0 0 1 1 2 2 2 3 3 4 5 6 9 10 11 13 14 16 18 19 20 23 26 28 29 29 29 29 29 30 30 30 30 30 30 30 30 30 29 29 30 30 30 30 30 24 19 18 18 18 19 19 20 22 23 24 24 25 25 24 23 22
2 2 3 2 3 3 4 4 4 4 5 7 8 9 10 10 11 13 14 16 18 20 23 25 27 29 29 29 30 30 30 30 29 29 29 30 30 30 30 29 29 29 29 29 30 29 24 20 18 18 19 20 19 19 20 21 22 22 23 24 24 24 22
5 5 5 4 4 5 5 6 6 7 7 8 9 10 9 10 11 12 13 15 17 19 22 24 25 27 28 28 29 30 30 30 30 29 28 29 30 30 30 29 28 29 29 29 29 30 28 21 18 17 18 19 19 19 19 20 22 22 23 23 23 24 25
7 7 7 7 7 7 7 7 7 10 15 16 12 11 11 11 11 12 14 16 17 19 21 24 25 25 26 27 28 29 29 30 30 30 30 29 30 29 29 29 28 28 28 29 29 29 29 25 21 17 18 19 19 20 21 21 20 20 21 21 22 22 24
8 8 8 8 9 9 9 9 9 15 18 19 20 17 16 15 15 15 15 17 17 18 20 22 24 24 25 27 27 28 28 29 30 30 31 30 30 30 30 29 28 29 29 29 29 29 29 27 24 19 18 19 19 19 20 20 20 20 21 20 19 19 21
8 9 9 9 10 10 10 10 15 18 19 20 21 21 18 17 17 17 17 18 18 19 21 22 23 23 24 24 25 26 27 28 29 30 30 31 31 31 31 31 29 29 29 29 28 28 28 28 27 25 22 21 21 19 19 20 20 22 21 20 20 21 20
9 9 10 10 11 11 11 11 16 19 21 21 22 22 21 19 19 18 18 19 19 20 21 22 22 23 23 24 26 26 25 25 26 29 30 30 31 31 31 31 31 31 29 29 29 28 28 28 27 26 24 24 22 20 21 21 21 22 22 21 21 21 20
9 10 10 11 11 12 12 13 16 20 22 23 23 23 22 21 20 20 20 19 20 20 21 21 22 22 23 24 24 25 25 25 25 26 28 30 30 30 30 31 31 31 30 30 28 28 28 29 28 26 25 25 25 23 22 22 22 23 23 22 22 23 22
10 11 11 12 12 13 13 13 19 22 23 24 25 24 23 22 21 21 20 21 21 21 21 21 22 23 23 24 24 24 25 25 25 26 27 28 29 30 31 30 30 31 31 30 29 28 29 29 29 28 26 25 25 24 24 24 23 24 24 24 23 22 23
11 11 12 13 13 14 15 16 21 23 25 26 26 27 24 23 22 21 21 21 22 22 22 22 22 23 23 24 24 25 26 26 26 27 27 26 27 29 30 30 31 31 31 31 30 29 29 29 28 29 27 26 25 26 26 26 25 25 23 21 20 19 21
11 12 12 13 14 15 15 17 20 23 25 25 26 27 27 25 23 22 22 22 22 22 23 23 23 23 23 24 24 25 26 26 27 27 27 27 27 28 28 28 30 31 32 32 32 32 31 31 30 30 29 28 28 27 26 24 23 22 22 21 19 19 20
11 12 13 13 14 14 15 16 19 22 24 26 26 27 27 26 24 23 23 23 23 23 23 23 24 24 24 24 24 26 26 27 27 27 27 27 27 27 27 28 28 28 30 32 31 31 31 31 31 30 30 29 29 29 27 24 22 22 22 21 20 18 18
11 11 12 13 13 17 16 16 18 21 24 25 26 26 27 27 26 24 24 24 24 24 24 24 24 25 25 25 26 27 28 28 28 28 28 28 27 26 27 27 28 27 27 29 30 30 31 30 31 31 30 30 29 28 27 26 25 23 22 20 20 18 17
11 11 12 14 15 15 16 17 18 20 23 25 25 25 26 26 24 24 25 26 25 25 25 26 26 26 27 28 28 29 29 29 29 29 29 28 27 26 26 28 28 27 27 28 29 29 30 30 30 30 30 29 29 28 26 26 25 23 22 21 20 18 17
11 12 13 14 16 16 17 18 19 20 24 25 25 24 24 24 24 23 23 22 22 23 25 26 27 28 29 29 29 30 30 30 30 30 30 29 27 27 28 28 27 27 28 28 28 28 29 29 29 29 29 28 28 27 26 25 25 24 24 22 20 18 18
12 12 13 15 16 17 17 19 20 21 23 25 24 24 24 23 24 24 22 22 22 22 22 22 23 25 28 29 30 30 31 31 30 30 30 29 29 29 29 28 27 26 26 26 26 27 28 28 28 28 28 27 27 26 25 25 24 24 24 24 23 20 18
12 13 14 15 16 18 19 20 21 23 24 25 24 22 22 23 24 26 25 22 22 22 23 23 23 24 25 25 26 29 30 30 30 30 30 31 31 30 29 29 26 25 25 25 25 26 26 26 26 26 26 26 26 25 25 24 24 24 21 18 18 18 20
13 14 15 16 17 18 20 22 23 24 24 23 24 24 23 23 23 23 24 23 23 23 24 23 23 23 24 25 26 27 28 29 29 30 30 30 31 30 30 28 26 25 25 25 24 24 25 25 26 25 25 24 25 24 21 16 15 14 14 13 10 12 11
14 15 16 17 18 19 21 22 23 22 21 24 25 25 25 26 25 25 24 24 24 24 24 24 24 25 26 26 27 26 26 27 28 29 30 30 31 31 29 28 26 25 24 24 23 24 24 25 25 25 25 24 18 13 13 12 9 9 9 9 8 7 5
15 16 17 18 19 20 21 22 22 21 21 22 23 24 25 27 27 26 26 26 25 26 26 26 26 27 27 27 27 26 27 26 27 27 28 29 30 30 29 29 26 25 24 24 23 24 24 24 24 24 22 17 15 17 13 11 9 9 9 11 10 7 4
17 17 18 18 19 20 21 22 22 21 22 23 23 22 22 21 20 23 23 21 22 23 23 25 25 26 26 25 25 24 24 24 24 25 26 27 28 29 29 29 27 25 25 24 24 23 23 24 20 16 16 16 17 17 14 12 11 11 10 10 9 6 4
17 18 18 19 20 20 21 22 22 23 24 24 22 21 21 20 19 19 19 20 20 20 21 21 21 21 19 19 19 19 18 18 18 18 19 21 23 27 27 28 29 27 25 24 24 23 21 15 15 17 18 17 17 15 13 13 12 11 9 9 8 6 3
18 19 19 20 20 21 21 22 23 24 25 25 24 22 21 20 21 21 21 22 22 19 18 18 17 17 17 17 16 16 15 15 16 15 16 16 17 19 24 26 25 24 23 24 22 17 15 15 17 17 16 15 15 13 12 13 11 11 10 9 11 9 3
18 20 20 20 21 23 24 23 23 24 24 24 23 23 23 23 22 21 22 22 21 19 16 15 15 15 14 14 14 14 13 12 13 13 12 12 15 14 14 14 18 20 19 18 19 17 15 16 16 15 15 14 12 11 11 11 12 10 10 10 9 6 5
21 22 21 21 21 22 24 25 25 25 24 24 23 23 23 22 22 21 22 21 16 14 13 13 13 13 13 13 13 12 12 12 12 11 11 10 10 11 11 11 11 12 14 15 15 15 15 14 14 14 13 12 10 10 10 10 10 10 11 11 9 7 5
19 20 21 21 21 22 21 23 24 24 24 23 23 23 23 23 22 22 21 20 18 12 11 12 11 11 11 11 11 11 11 11 11 10 10 9 8 8 9 10 10 12 12 12 13 12 11 12 12 11 9 9 8 8 9 8 9 9 9 9 8 7 5
18 19 20 20 21 22 22 22 22 23 23 23 22 21 21 21 21 21 19 17 10 9 8 9 9 9 9 9 10 10 9 9 8 8 7 8 7 7 8 9 10 11 11 11 11 10 10 9 8 7 7 6 7 8 8 8 8 9 8 7 4 2 2
15 17 18 18 19 20 21 21 21 22 22 22 21 20 19 18 15 18 18 14 8 7 6 7 7 7 8 8 9 8 8 6 6 6 6 6 7 8 9 9 10 10 10 10 9 8 8 8 7 7 7 6 7 7 7 7 7 7 6 6 4 1 -0
6 11 15 13 15 18 19 20 20 20 20 20 20 19 17 15 7 6 5 5 4 5 5 5 5 6 7 8 7 7 6 4 4 4 4 5 7 7 8 8 8 8 8 7 7 7 7 6 6 7 6 6 6 5 6 5 5 5 6 3 0 -1 -3
5 6 10 13 14 16 17 18 18 18 19 19 18 17 15 6 6 6 5 4 4 4 4 3 3 5 6 7 6 5 3 2 1 0 1 2 5 6 7 7 7 6 6 6 5 5 6 6 6 6 6 6 6 6 5 4 3 3 2 1 -1 -2 -4

ECMWFFLT1_sfc_dewp_042.txt.gz
Dewpoint
-7 -7 -7 -7 -6 -6 -6 -6 -5 -5 -5 -4 -2 -1 -1 -0 0 0 2 2 5 10 16 18 20 22 23 24 24 24 24 25 25 26 25 25 25 28 30 30 28 27 26 25 28 25 23 25 27 27 29 29 29 29 29 30 31 31 28 28 30 31 31
-5 -5 -6 -6 -5 -5 -5 -2 -1 -1 -1 -1 -1 -0 1 2 3 2 2 4 8 15 20 21 22 22 23 24 25 25 25 26 26 27 26 25 26 26 27 29 30 27 27 26 26 23 21 22 27 26 29 29 29 29 29 28 28 28 29 29 28 28 30
-3 -3 -3 -3 -4 -4 -2 -0 3 4 7 7 6 6 4 4 4 4 7 12 16 18 19 19 21 23 24 24 24 25 26 27 27 27 27 27 28 28 27 29 31 29 28 28 28 26 22 20 23 25 26 29 29 29 29 29 29 29 28 29 28 27 28
-2 -3 -3 -3 -2 2 -2 -2 -2 -0 5 5 8 12 13 13 14 15 16 17 17 18 18 19 20 22 24 25 24 25 25 26 27 26 27 28 29 29 28 26 29 31 30 27 28 28 24 20 21 23 25 28 29 29 29 29 30 30 29 28 28 26 26
-1 -1 -1 -2 -2 -1 -2 -1 -1 -0 -0 1 3 6 10 11 12 13 14 15 15 17 17 18 19 20 23 25 25 25 25 26 26 27 28 27 27 26 28 29 29 29 30 30 28 28 26 22 21 22 23 27 27 29 29 29 30 30 29 29 29 28 27
1 1 -0 -1 -1 -1 -0 -0 0 1 1 1 1 3 8 9 10 10 12 14 15 16 18 19 19 20 21 24 25 25 25 26 28 29 28 27 27 28 29 28 29 29 29 29 28 27 26 23 21 21 23 26 27 27 27 28 29 30 30 29 29 29 29
3 3 2 2 2 2 2 2 2 3 2 2 2 7 8 8 9 8 10 11 13 15 17 18 19 20 22 23 25 26 27 27 28 29 30 29 29 29 29 29 29 29 29 29 28 29 28 25 22 22 21 24 27 27 27 27 27 27 28 29 29 28 29
5 4 5 4 4 4 4 4 4 4 4 6 8 8 9 9 10 10 10 10 12 14 15 16 17 19 21 23 25 27 27 28 27 29 29 29 30 29 30 30 30 29 29 28 29 28 27 26 23 23 23 24 25 26 26 27 26 25 25 26 28 28 28
7 7 7 6 6 6 7 8 8 8 8 8 9 9 9 9 10 10 10 10 12 14 15 16 16 19 20 23 26 26 28 29 29 28 28 28 29 30 30 29 29 29 28 28 27 26 27 26 25 23 23 22 23 24 23 25 26 26 27 26 26 27 29
8 9 9 8 9 9 9 9 9 11 15 15 11 10 10 10 10 10 10 11 11 12 14 16 17 19 21 24 26 26 27 29 30 30 29 28 28 29 28 29 28 27 27 27 26 26 25 26 26 24 23 23 22 23 23 24 25 25 25 26 25 26 27
9 9 9 10 10 10 10 11 11 16 18 19 20 16 13 12 12 12 12 12 12 13 13 15 18 21 22 23 25 26 27 28 30 30 30 30 30 29 29 28 28 28 27 26 26 26 27 26 26 24 23 23 23 22 22 23 23 24 25 24 23 22 24
9 10 10 11 11 11 11 11 15 18 20 20 21 20 17 16 15 15 16 16 16 15 16 16 17 20 22 24 25 26 27 27 29 29 30 30 31 30 30 30 29 28 27 27 27 27 27 28 27 26 25 25 24 23 23 24 24 24 24 23 23 23 24
9 10 11 11 12 12 12 13 17 20 21 22 22 22 21 18 17 17 16 17 17 18 18 18 18 20 22 24 24 25 26 27 27 28 29 29 30 30 30 30 30 31 30 29 28 27 27 27 29 27 25 26 25 24 25 25 24 25 24 24 23 23 25
10 11 12 12 12 13 13 14 17 21 22 23 23 23 23 20 20 19 18 18 18 18 19 19 19 19 21 23 24 25 26 26 26 26 27 28 28 29 29 30 31 31 31 30 29 29 27 29 29 28 29 28 27 26 25 24 24 25 25 25 24 25 26
11 12 13 13 14 14 14 15 20 22 23 24 25 25 24 22 21 20 20 19 19 19 19 20 20 20 20 22 24 24 26 26 26 26 26 26 27 27 28 29 30 31 31 31 31 30 29 30 30 30 30 30 28 28 27 27 27 27 26 27 27 25 26
12 12 13 13 15 15 15 16 21 22 24 25 26 26 26 24 23 21 21 20 20 20 20 20 21 21 21 21 23 24 25 25 26 26 26 25 26 26 27 29 30 31 32 32 31 31 30 29 29 30 29 29 28 28 28 26 26 27 26 24 23 22 24
11 12 13 14 15 15 15 16 19 22 24 25 26 26 24 26 25 23 22 21 21 20 20 21 22 22 21 22 23 24 25 24 26 26 25 25 25 26 26 26 29 31 31 31 32 32 32 31 31 31 31 31 29 28 27 25 24 24 24 23 22 22 22
10 12 13 14 14 16 16 17 19 22 24 25 25 25 25 24 24 25 23 22 22 21 21 22 23 23 22 22 23 24 25 24 25 26 25 25 25 25 25 25 28 29 31 31 31 32 32 31 30 31 32 31 30 29 28 25 23 24 24 22 22 21 21
11 12 13 14 15 18 18 18 20 22 23 25 25 24 24 24 24 25 24 23 22 22 21 22 23 24 24 23 23 24 25 24 25 26 26 25 25 24 24 25 27 28 29 29 30 30 31 31 31 31 31 31 30 29 28 28 27 25 23 22 22 22 21
12 13 14 16 17 18 19 19 20 21 24 25 25 24 24 23 23 24 24 25 23 22 23 23 23 24 25 26 25 25 25 25 26 27 26 26 24 24 24 27 28 29 29 29 29 29 29 30 31 30 31 31 30 30 29 28 28 26 25 23 22 22 21
13 14 15 17 18 19 20 21 22 22 24 25 24 24 23 23 23 24 24 23 23 24 24 24 23 24 25 26 26 27 27 27 27 27 27 27 25 26 27 28 27 28 30 29 29 29 29 29 29 30 29 30 29 29 29 28 28 28 26 24 23 22 21
14 14 16 18 19 21 21 22 23 23 24 25 25 24 23 21 22 24 24 23 22 23 23 23 24 26 27 27 27 28 28 28 28 28 27 27 28 28 28 28 27 27 28 28 28 27 27 28 28 28 28 29 29 28 28 28 28 27 27 26 26 23 21
14 16 17 18 18 20 21 23 23 24 24 24 25 25 25 23 22 23 24 24 22 22 22 23 24 24 25 26 27 28 29 30 30 29 29 30 30 30 30 29 27 27 27 27 27 26 26 25 27 27 27 28 28 27 27 27 27 27 26 22 21 21 23
15 16 17 17 17 19 20 22 23 23 24 25 25 26 26 25 23 22 23 23 22 21 22 23 23 24 24 24 25 26 27 28 29 29 30 31 30 31 31 30 29 28 27 27 26 26 25 24 25 27 27 27 27 27 27 25 24 22 21 19 16 16 15
16 15 16 16 17 18 20 22 24 24 24 25 25 26 26 26 26 25 25 23 22 23 24 23 23 23 24 25 25 26 26 26 27 27 28 29 30 31 30 29 28 27 26 26 25 25 25 25 26 27 27 28 25 20 19 17 15 16 15 14 13 12 11
14 14 16 16 17 18 20 23 23 23 24 24 24 24 24 24 24 25 26 26 26 26 26 26 26 26 26 26 26 25 25 25 26 27 28 29 29 28 28 29 28 27 26 25 25 25 24 24 26 27 26 23 20 18 16 15 14 14 14 15 15 12 10
14 14 15 16 17 19 21 22 22 22 22 23 22 22 22 21 21 22 22 22 22 23 23 24 25 25 26 26 26 25 25 24 24 24 24 25 26 26 26 27 29 28 26 26 25 25 24 24 25 23 21 21 20 18 17 16 15 16 15 16 15 12 10
14 15 15 16 17 19 19 20 21 22 21 22 22 22 22 21 21 20 20 20 20 21 22 22 22 22 21 22 21 21 21 20 20 20 20 21 23 25 26 27 30 30 27 26 26 25 24 23 22 22 21 22 21 18 17 17 17 16 15 15 14 12 9
14 16 17 17 17 18 18 18 20 21 23 22 23 22 21 20 20 20 20 22 23 21 20 20 19 18 18 18 18 18 17 16 16 17 17 17 18 19 21 25 26 28 26 26 25 25 23 22 23 22 21 21 19 17 16 17 17 16 15 14 16 13 9
16 17 17 16 17 19 19 19 21 23 23 22 22 22 23 23 22 22 22 22 21 19 17 16 16 16 16 16 16 16 15 15 15 15 14 13 15 14 16 17 21 26 26 25 25 24 22 22 22 21 20 20 18 16 16 16 17 15 15 15 16 11 10
18 19 19 17 16 18 20 21 22 22 22 22 22 22 22 22 22 22 22 21 17 15 15 15 15 15 15 14 14 14 13 13 13 13 12 13 13 12 12 13 14 15 20 25 25 22 21 22 21 20 19 19 16 15 15 15 14 14 14 14 13 11 9
17 18 19 18 18 18 17 19 21 21 21 21 21 21 21 21 21 21 20 19 17 13 12 12 12 13 12 12 12 12 12 11 11 11 10 10 11 10 10 11 12 14 16 20 22 21 20 20 20 20 18 15 14 14 14 14 13 13 14 14 12 10 8
15 16 17 17 18 19 19 19 20 20 21 21 20 20 19 19 20 20 18 16 12 11 11 11 11 11 11 11 10 10 9 9 9 9 10 10 10 10 10 11 13 14 14 14 15 17 18 18 19 18 17 15 14 13 13 12 13 14 14 12 11 8 7
12 14 15 15 16 18 18 18 19 20 20 20 19 18 17 15 14 17 17 13 9 9 9 9 10 10 9 10 9 9 9 9 9 9 10 10 10 10 11 12 12 12 12 12 12 12 11 11 12 11 11 11 12 12 12 12 12 12 11 10 8 7 6
3 7 11 10 11 15 16 17 17 18 18 18 18 17 15 12 8 7 7 8 8 8 7 7 7 8 8 8 8 7 7 7 7 7 8 9 10 10 10 10 10 10 10 10 10 10 10 10 10 11 10 10 10 11 11 11 11 11 10 10 8 6 4
1 2 7 9 10 13 14 15 15 15 16 16 16 15 13 7 6 6 6 6 6 7 7 7 6 7 7 7 6 5 4 4 6 6 7 7 7 9 9 9 9 9 9 9 9 9 10 10 10 9 10 10 10 10 10 9 10 9 9 9 6 5 2